Regional Weather Roundup
Issued by NWS Kansas City/Pleasant Hill, MO

Home | Current Version | Previous Version | Graphics & Text | Print | Product List | Glossary Off
Versions: 1 2 3 4 5 6 7 8 9 10 11 12 13 14 15 16 17 18 19 20 21 22 23 24 25 26 27

000
ASUS43 KEAX 280410
RWREAX

WEATHER ROUNDUP FOR EASTERN KANSAS AND NORTHWEST MISSOURI
NATIONAL WEATHER SERVICE KANSAS CITY/PLEASANT HILL MO
1100 PM CDT SAT AUG 27 2016

KSZ040-057-103>105-MOZ028-029-037-043-280500-
...KANSAS CITY METROPOLITAN AREA...

CITY           SKY/WX    TMP DP  RH WIND       PRES   REMARKS
K.C. INTL      CLEAR     74  69  85 SE3       30.05S
K.C. DOWNTOWN  CLEAR     74  71  91 N3        30.04R
LEES SUMMIT    PTCLDY    77  72  84 E3        30.07R
OLATHE - IXD   CLEAR     74  72  93 SE5       30.06R
OLATHE - OJC   CLEAR     74  73  97 CALM      30.07R
LAWRENCE       CLEAR     69  69 100 CALM      30.05R

$$

MOZ001>008-011>017-020>025-030>033-038>040-044>046-053-054-280500-
...NORTHERN AND CENTRAL MISSOURI...

CITY           SKY/WX    TMP DP  RH WIND       PRES   REMARKS
ST. JOSEPH     CLEAR     75  69  81 SE3       30.05R
MOSBY          CLOUDY    73  72  94 CALM      30.05R
WHITEMAN AFB   CLEAR     75  75 100 S5        30.05R
CLINTON        CLEAR     75  72  88 CALM      30.07R
SEDALIA        CLEAR     75  71  87 S7        30.08R
WARSAW         NOT AVBL
CHILLICOTHE    NOT AVBL
KIRKSVILLE     PTCLDY    72  69  90 E3        30.09R

$$

MOZ041-047>049-056>058-063>065-088>090-097-280500-
...EASTERN AND SOUTHERN MISSOURI...

CITY           SKY/WX    TMP DP  RH WIND       PRES   REMARKS
ST. LOUIS INTL MOCLDY    79  69  71 SE5       30.10R
SPIRIT OF STL  CLOUDY    76  73  91 E3        30.08S
COLUMBIA       CLOUDY    77  74  90 SE7       30.09R
JEFFERSON CITY CLOUDY    77  73  87 E5        30.07R
ROLLA          PTCLDY    73  71  93 E5        30.10R
OSAGE BEACH    PTCLDY    74  71  91 CALM      30.09R
SPRINGFIELD    CLEAR     76  68  76 S7        30.09S
BRANSON        CLEAR     73  72  94 CALM      30.12R
JOPLIN         CLEAR     77  70  79 SE3       30.06R
WEST PLAINS    CLEAR     73  70  90 CALM      30.14R

$$

IAZ060-094-KSZ022-034>040-054-083-096-NEZ052-066-093-280500-
...KANSAS...SOUTHEAST NEBRASKA AND IOWA...

CITY           SKY/WX    TMP DP  RH WIND       PRES   REMARKS
TOPEKA         CLEAR     74  70  87 CALM      30.04R
MANHATTAN      CLEAR     74  71  91 CALM      30.04R
EMPORIA        CLEAR     71  68  90 S7        30.05R
CHANUTE        CLEAR     77  71  82 SE7       30.05R
WICHITA        PTCLDY    78  70  76 SE8       30.04R
OMAHA          CLEAR     74  66  76 CALM      30.05R
LINCOLN        CLEAR     72  64  76 CALM      30.06R
FALLS CITY     CLEAR     72  69  90 S5        30.04R
LAMONI         PTCLDY    74  69  85 E3        30.07R
DES MOINES     MOCLDY    73  69  87 CALM      30.06R

$$





USA.gov is the U.S. government's official web portal to all federal, state and local government web resources and services.